Location: Unspecified
(0.0000°N, 0.0000°E)
Time: 14:57:00
(UTC+00:00)

Altair - Pass Details

Date: 04 November 2021
Orbit: 1502 x 1682 km, 47.2° (Epoch: 26 November)

Event Time Altitude Azimuth Distance (km) Brightness Sun altitude
Rises 06:33:22 0° 347° (NNW) 4,788 9.8 12.0°
Reaches altitude 10° 06:37:37 10° 3° (N) 3,836 9.5 13.0°
Maximum altitude 06:44:24 21° 48° (NE) 3,119 9.7 14.6°
Drops below altitude 10° 06:51:16 10° 92° (E) 3,921 11.6 16.3°
Sets 06:55:36 0° 107° (ESE) 4,925 11.9 17.3°
